Location: ?????
(54.9266°N, 38.5527°E)
Time: 19:28:46
(UTC+00:00)

deb REX - Pass Details

Date: 27 September 2024
Orbit: 705 x 731 km, 89.8° (Epoch: 09 October)

Event Time Altitude Azimuth Distance (km) Brightness Sun altitude
Rises 16:29:26 0° 227° (SW) 3,129 ? -12.0°
Reaches altitude 10° 16:32:29 10° 247° (WSW) 2,208 ? -12.4°
Maximum altitude 16:35:42 17° 288° (WNW) 1,765 ? -12.9°
Drops below altitude 10° 16:38:54 10° 330° (NNW) 2,207 ? -13.3°
Sets 16:41:58 0° 350° (N) 3,127 ? -13.8°
